Time,TemperatureF,DewpointF,PressureIn,WindDirection,WindDirectionDegrees,WindSpeedMPH,WindSpeedGustMPH,Humidity,HourlyPrecipIn,Conditions,Clouds,dailyrainin,SoftwareType,DateUTC
2013-05-03 00:01:00,34.3,33.3,30.25,North,355,0.0,0.0,96,0.01,RA,,0.00,WeatherDisplay:10.37,2013-05-03 05:01:00,
2013-05-03 00:06:00,34.3,33.3,30.25,North,355,0.0,0.0,96,0.01,RA,,0.00,WeatherDisplay:10.37,2013-05-03 05:06:00,
2013-05-03 00:11:00,34.3,33.3,30.25,North,355,0.0,0.0,96,0.01,CLR,,0.00,WeatherDisplay:10.37,2013-05-03 05:11:00,
2013-05-03 00:16:00,34.4,33.4,30.25,North,355,1.2,0.0,96,0.01,CLR,,0.00,WeatherDisplay:10.37,2013-05-03 05:16:00,
2013-05-03 00:21:00,34.4,33.4,30.25,North,355,0.0,0.0,96,0.00,CLR,,0.00,WeatherDisplay:10.37,2013-05-03 05:21:00,
2013-05-03 00:26:00,34.3,33.3,30.25,North,355,3.5,3.5,96,0.00,CLR,,0.00,WeatherDisplay:10.37,2013-05-03 05:26:00,
2013-05-03 00:31:00,34.4,33.4,30.24,North,355,1.2,0.0,96,0.00,CLR,,0.00,WeatherDisplay:10.37,2013-05-03 05:31:00,
2013-05-03 00:36:00,34.4,33.4,30.24,North,355,0.0,0.0,96,0.00,CLR,,0.00,WeatherDisplay:10.37,2013-05-03 05:36:00,
2013-05-03 00:41:00,34.4,33.4,30.24,North,355,1.2,1.2,96,0.00,CLR,,0.00,WeatherDisplay:10.37,2013-05-03 05:41:00,
2013-05-03 00:46:00,34.4,33.4,30.24,North,355,0.0,0.0,96,0.00,CLR,,0.00,WeatherDisplay:10.37,2013-05-03 05:46:00,
2013-05-03 00:51:00,34.4,33.4,30.25,North,355,0.0,0.0,96,0.01,RA,,0.01,WeatherDisplay:10.37,2013-05-03 05:51:00,
2013-05-03 00:56:00,34.4,33.4,30.24,North,355,0.0,0.0,96,0.01,RA,,0.01,WeatherDisplay:10.37,2013-05-03 05:56:00,
2013-05-03 01:01:00,34.4,33.4,30.22,North,355,2.3,2.3,96,0.01,,,0.01,WeatherDisplay:10.37,2013-05-03 06:01:00,
2013-05-03 01:06:00,34.4,33.4,30.23,North,355,0.0,0.0,96,0.01,CLR,,0.01,WeatherDisplay:10.37,2013-05-03 06:06:00,
2013-05-03 01:11:00,34.4,33.4,30.24,North,355,0.0,0.0,96,0.01,CLR,,0.01,WeatherDisplay:10.37,2013-05-03 06:11:00,
2013-05-03 01:16:00,34.4,33.4,30.24,North,355,0.0,0.0,96,0.01,CLR,,0.01,WeatherDisplay:10.37,2013-05-03 06:16:00,
2013-05-03 01:21:00,34.4,33.4,30.25,North,355,0.0,0.0,96,0.01,CLR,,0.01,WeatherDisplay:10.37,2013-05-03 06:21:00,
2013-05-03 01:26:00,34.4,33.4,30.23,North,355,0.0,0.0,96,0.01,CLR,,0.01,WeatherDisplay:10.37,2013-05-03 06:26:00,
2013-05-03 01:31:00,34.5,33.5,30.22,North,355,3.5,3.5,96,0.01,CLR,,0.01,WeatherDisplay:10.37,2013-05-03 06:31:00,
2013-05-03 01:36:00,34.5,33.5,30.22,North,355,0.0,0.0,96,0.02,RA,,0.02,WeatherDisplay:10.37,2013-05-03 06:36:00,
2013-05-03 01:41:00,34.4,33.4,30.22,North,355,0.0,0.0,96,0.02,RA,,0.02,WeatherDisplay:10.37,2013-05-03 06:41:00,
2013-05-03 01:46:00,34.4,33.4,30.21,North,355,3.5,3.5,96,0.02,CLR,,0.02,WeatherDisplay:10.37,2013-05-03 06:46:00,
2013-05-03 01:51:00,34.4,33.4,30.20,North,355,1.2,1.2,96,0.01,CLR,,0.02,WeatherDisplay:10.37,2013-05-03 06:51:00,
2013-05-03 01:56:00,34.4,33.4,30.20,North,355,3.5,3.5,96,0.02,RA,,0.03,WeatherDisplay:10.37,2013-05-03 06:56:00,
2013-05-03 02:01:00,34.4,33.4,30.20,North,355,3.5,3.5,96,0.02,RA,,0.03,WeatherDisplay:10.37,2013-05-03 07:01:00,
2013-05-03 02:06:00,34.4,33.4,30.19,North,355,2.3,2.3,96,0.02,,,0.03,WeatherDisplay:10.37,2013-05-03 07:06:00,
2013-05-03 02:11:00,34.4,33.4,30.19,North,355,0.0,0.0,96,0.02,CLR,,0.03,WeatherDisplay:10.37,2013-05-03 07:11:00,
2013-05-03 02:16:00,34.4,33.4,30.20,North,355,0.0,0.0,96,0.02,CLR,,0.03,WeatherDisplay:10.37,2013-05-03 07:16:00,
2013-05-03 02:21:00,34.4,33.4,30.20,North,355,0.0,0.0,96,0.02,CLR,,0.03,WeatherDisplay:10.37,2013-05-03 07:21:00,
2013-05-03 02:26:00,34.4,33.4,30.19,North,355,3.5,0.0,96,0.02,CLR,,0.03,WeatherDisplay:10.37,2013-05-03 07:26:00,
2013-05-03 02:31:00,34.4,33.4,30.19,North,355,0.0,0.0,96,0.03,RA,,0.04,WeatherDisplay:10.37,2013-05-03 07:31:00,
2013-05-03 02:36:00,34.4,33.4,30.18,North,355,4.6,4.6,96,0.02,RA,,0.04,WeatherDisplay:10.37,2013-05-03 07:36:00,
2013-05-03 02:41:00,34.5,33.5,30.18,North,355,4.6,4.6,96,0.02,,,0.04,WeatherDisplay:10.37,2013-05-03 07:41:00,
2013-05-03 02:46:00,34.5,33.5,30.18,North,355,0.0,0.0,96,0.02,CLR,,0.04,WeatherDisplay:10.37,2013-05-03 07:46:00,
2013-05-03 02:51:00,34.5,33.5,30.18,North,355,3.0,3.0,96,0.02,CLR,,0.04,WeatherDisplay:10.37,2013-05-03 07:51:00,
2013-05-03 02:56:00,34.6,33.6,30.18,North,355,6.0,6.0,96,0.01,CLR,,0.04,WeatherDisplay:10.37,2013-05-03 07:56:00,
2013-05-03 03:02:00,34.6,33.6,30.18,North,355,1.2,1.2,96,0.01,CLR,,0.04,WeatherDisplay:10.37,2013-05-03 08:02:00,
2013-05-03 03:07:00,34.7,33.7,30.18,North,355,5.0,5.0,96,0.02,RA,,0.05,WeatherDisplay:10.37,2013-05-03 08:07:00,
2013-05-03 03:12:00,34.6,33.6,30.17,North,355,4.6,4.6,96,0.02,RA,,0.05,WeatherDisplay:10.37,2013-05-03 08:12:00,
2013-05-03 03:17:00,34.7,33.7,30.17,North,355,10.0,10.0,96,0.02,,,0.05,WeatherDisplay:10.37,2013-05-03 08:17:00,
2013-05-03 03:22:00,34.7,33.7,30.17,North,5,3.5,3.5,96,0.02,CLR,,0.05,WeatherDisplay:10.37,2013-05-03 08:22:00,
2013-05-03 03:27:00,34.8,33.8,30.18,North,10,2.3,2.3,96,0.02,CLR,,0.05,WeatherDisplay:10.37,2013-05-03 08:27:00,
2013-05-03 03:32:00,34.9,33.9,30.17,North,360,1.2,1.2,96,0.01,CLR,,0.05,WeatherDisplay:10.37,2013-05-03 08:32:00,
2013-05-03 03:37:00,35.0,34.0,30.17,North,360,2.3,0.0,96,0.02,RA,,0.06,WeatherDisplay:10.37,2013-05-03 08:37:00,
2013-05-03 03:42:00,35.0,34.0,30.16,North,360,5.0,5.0,96,0.02,RA,,0.06,WeatherDisplay:10.37,2013-05-03 08:42:00,
2013-05-03 03:47:00,35.0,34.0,30.15,North,355,3.0,3.0,96,0.02,,,0.06,WeatherDisplay:10.37,2013-05-03 08:47:00,
2013-05-03 03:52:00,35.1,34.1,30.16,North,355,3.5,3.5,96,0.02,CLR,,0.06,WeatherDisplay:10.37,2013-05-03 08:52:00,
2013-05-03 03:57:00,35.1,34.1,30.16,North,355,3.5,3.5,96,0.02,CLR,,0.06,WeatherDisplay:10.37,2013-05-03 08:57:00,
2013-05-03 04:02:00,35.2,34.2,30.16,North,355,0.0,0.0,96,0.02,CLR,,0.06,WeatherDisplay:10.37,2013-05-03 09:02:00,
2013-05-03 04:07:00,35.3,34.3,30.16,North,355,3.5,3.5,96,0.02,RA,,0.07,WeatherDisplay:10.37,2013-05-03 09:07:00,
2013-05-03 04:12:00,35.3,34.3,30.15,North,355,3.5,3.5,96,0.02,RA,,0.07,WeatherDisplay:10.37,2013-05-03 09:12:00,
2013-05-03 04:17:00,35.3,34.3,30.14,North,355,8.1,8.1,96,0.02,,,0.07,WeatherDisplay:10.37,2013-05-03 09:17:00,
2013-05-03 04:22:00,35.4,34.4,30.14,North,355,3.5,3.5,96,0.02,CLR,,0.07,WeatherDisplay:10.37,2013-05-03 09:22:00,
2013-05-03 04:27:00,35.5,34.5,30.15,North,355,1.2,0.0,96,0.02,CLR,,0.07,WeatherDisplay:10.37,2013-05-03 09:27:00,
2013-05-03 04:32:00,35.5,34.5,30.16,North,355,4.6,4.6,96,0.02,CLR,,0.07,WeatherDisplay:10.37,2013-05-03 09:32:00,
2013-05-03 04:37:00,35.6,34.6,30.16,North,355,1.2,0.0,96,0.02,RA,,0.08,WeatherDisplay:10.37,2013-05-03 09:37:00,
2013-05-03 04:42:00,35.6,34.3,30.16,North,355,3.5,3.5,95,0.02,RA,,0.08,WeatherDisplay:10.37,2013-05-03 09:42:00,
2013-05-03 04:47:00,35.7,34.4,30.16,North,350,6.9,6.9,95,0.02,,,0.08,WeatherDisplay:10.37,2013-05-03 09:47:00,
2013-05-03 04:52:00,35.7,34.4,30.14,North,351,3.5,3.5,95,0.02,CLR,,0.08,WeatherDisplay:10.37,2013-05-03 09:52:00,
2013-05-03 04:57:00,35.7,34.4,30.14,North,351,5.8,5.8,95,0.02,CLR,,0.08,WeatherDisplay:10.37,2013-05-03 09:57:00,
2013-05-03 05:02:00,35.8,34.5,30.13,North,355,13.8,13.8,95,0.03,RA,,0.09,WeatherDisplay:10.37,2013-05-03 10:02:00,
2013-05-03 05:07:00,35.9,34.6,30.14,North,360,5.8,5.8,95,0.02,RA,,0.09,WeatherDisplay:10.37,2013-05-03 10:07:00,
2013-05-03 05:12:00,35.9,34.6,30.15,North,360,2.3,2.3,95,0.02,,,0.09,WeatherDisplay:10.37,2013-05-03 10:12:00,
2013-05-03 05:17:00,36.0,34.7,30.14,North,360,3.5,3.5,95,0.02,CLR,,0.09,WeatherDisplay:10.37,2013-05-03 10:17:00,
2013-05-03 05:22:00,36.0,34.7,30.14,North,360,3.5,0.0,95,0.02,CLR,,0.09,WeatherDisplay:10.37,2013-05-03 10:22:00,
2013-05-03 05:27:00,36.0,34.7,30.13,North,360,3.5,3.5,95,0.02,CLR,,0.09,WeatherDisplay:10.37,2013-05-03 10:27:00,
2013-05-03 05:32:00,36.0,34.7,30.13,North,360,0.0,0.0,95,0.03,RA,,0.10,WeatherDisplay:10.37,2013-05-03 10:32:00,
2013-05-03 05:37:00,36.0,34.7,30.13,North,360,3.5,3.5,95,0.02,RA,,0.10,WeatherDisplay:10.37,2013-05-03 10:37:00,
2013-05-03 05:42:00,35.9,34.3,30.12,North,355,6.9,6.9,94,0.02,CLR,,0.10,WeatherDisplay:10.37,2013-05-03 10:42:00,
2013-05-03 05:47:00,35.9,34.3,30.13,North,355,10.4,10.4,94,0.02,CLR,,0.10,WeatherDisplay:10.37,2013-05-03 10:47:00,
2013-05-03 05:52:00,36.0,34.4,30.14,North,355,4.6,4.6,94,0.02,CLR,,0.10,WeatherDisplay:10.37,2013-05-03 10:52:00,
2013-05-03 05:57:00,36.0,34.4,30.13,North,355,7.0,7.0,94,0.03,RA,,0.11,WeatherDisplay:10.37,2013-05-03 10:57:00,
2013-05-03 06:02:00,36.0,34.2,30.13,North,355,3.5,3.5,93,0.02,RA,,0.11,WeatherDisplay:10.37,2013-05-03 11:02:00,
2013-05-03 06:07:00,36.0,34.2,30.14,North,355,3.5,3.5,93,0.02,CLR,,0.11,WeatherDisplay:10.37,2013-05-03 11:07:00,
2013-05-03 06:12:00,36.0,34.2,30.14,North,355,3.5,3.5,93,0.02,CLR,,0.11,WeatherDisplay:10.37,2013-05-03 11:12:00,
2013-05-03 06:17:00,36.1,34.3,30.13,North,355,4.6,4.6,93,0.02,CLR,,0.11,WeatherDisplay:10.37,2013-05-03 11:17:00,
2013-05-03 06:22:00,36.1,34.3,30.14,North,5,9.2,9.2,93,0.02,CLR,,0.11,WeatherDisplay:10.37,2013-05-03 11:22:00,
2013-05-03 06:27:00,36.2,34.1,30.14,North,360,5.8,5.8,92,0.03,RA,,0.12,WeatherDisplay:10.37,2013-05-03 11:27:00,
2013-05-03 06:32:00,36.3,34.2,30.14,North,5,4.6,4.6,92,0.02,RA,,0.12,WeatherDisplay:10.37,2013-05-03 11:32:00,
2013-05-03 06:37:00,36.4,34.3,30.13,North,360,5.8,5.8,92,0.02,CLR,,0.12,WeatherDisplay:10.37,2013-05-03 11:37:00,
2013-05-03 06:42:00,36.4,34.3,30.14,North,355,10.4,10.4,92,0.02,CLR,,0.12,WeatherDisplay:10.37,2013-05-03 11:42:00,
2013-05-03 06:47:00,36.4,34.3,30.14,North,355,6.9,6.9,92,0.03,RA,,0.13,WeatherDisplay:10.37,2013-05-03 11:47:00,
2013-05-03 06:52:00,36.4,34.0,30.14,North,355,5.8,5.8,91,0.03,RA,,0.13,WeatherDisplay:10.37,2013-05-03 11:52:00,
2013-05-03 06:57:00,36.4,34.0,30.13,North,10,11.5,11.5,91,0.02,,,0.13,WeatherDisplay:10.37,2013-05-03 11:57:00,
2013-05-03 07:02:00,36.4,33.7,30.13,North,5,5.8,5.8,90,0.02,CLR,,0.13,WeatherDisplay:10.37,2013-05-03 12:02:00,
2013-05-03 07:07:00,36.4,33.5,30.13,North,360,9.0,9.0,89,0.02,CLR,,0.13,WeatherDisplay:10.37,2013-05-03 12:07:00,
2013-05-03 07:12:00,36.4,33.5,30.12,North,360,10.4,10.4,89,0.03,RA,,0.14,WeatherDisplay:10.37,2013-05-03 12:12:00,
2013-05-03 07:17:00,36.5,33.6,30.12,North,360,5.8,5.8,89,0.03,RA,,0.14,WeatherDisplay:10.37,2013-05-03 12:17:00,
2013-05-03 07:22:00,36.6,33.7,30.12,North,360,11.5,11.5,89,0.03,CLR,,0.14,WeatherDisplay:10.37,2013-05-03 12:22:00,
2013-05-03 07:27:00,36.7,33.8,30.11,North,10,5.8,5.8,89,0.03,RA,,0.15,WeatherDisplay:10.37,2013-05-03 12:27:00,
2013-05-03 07:32:00,36.8,33.9,30.13,North,360,4.0,4.0,89,0.03,RA,,0.15,WeatherDisplay:10.37,2013-05-03 12:32:00,
2013-05-03 07:37:00,36.8,33.9,30.13,NW,323,8.1,8.1,89,0.03,,,0.15,WeatherDisplay:10.37,2013-05-03 12:37:00,
2013-05-03 07:42:00,36.8,33.6,30.13,North,10,6.9,6.9,88,0.03,CLR,,0.15,WeatherDisplay:10.37,2013-05-03 12:42:00,
2013-05-03 07:47:00,36.9,33.7,30.12,North,350,6.9,6.9,88,0.02,CLR,,0.16,WeatherDisplay:10.37,2013-05-03 12:47:00,
2013-05-03 07:52:00,37.0,33.8,30.11,NNW,340,5.0,6.0,88,0.03,RA,,0.16,WeatherDisplay:10.37,2013-05-03 12:52:00,
2013-05-03 07:57:00,37.0,33.5,30.10,North,349,15.0,15.0,87,0.03,RA,,0.16,WeatherDisplay:10.37,2013-05-03 12:57:00,
2013-05-03 08:02:00,37.1,33.6,30.10,NNW,346,4.6,4.6,87,0.03,CLR,,0.17,WeatherDisplay:10.37,2013-05-03 13:02:00,
2013-05-03 08:07:00,37.3,33.8,30.11,WNW,302,11.0,11.0,87,0.04,RA,,0.17,WeatherDisplay:10.37,2013-05-03 13:07:00,
2013-05-03 08:12:00,37.3,33.5,30.10,North,350,12.7,12.7,86,0.03,RA,,0.17,WeatherDisplay:10.37,2013-05-03 13:12:00,
2013-05-03 08:17:00,37.4,33.6,30.09,NNW,346,5.8,9.0,86,0.03,CLR,,0.17,WeatherDisplay:10.37,2013-05-03 13:17:00,
2013-05-03 08:22:00,37.4,33.3,30.09,NNW,334,5.8,5.8,85,0.03,CLR,,0.17,WeatherDisplay:10.37,2013-05-03 13:22:00,
2013-05-03 08:27:00,37.4,33.3,30.08,North,5,12.7,12.7,85,0.03,RA,,0.18,WeatherDisplay:10.37,2013-05-03 13:27:00,
2013-05-03 08:32:00,37.4,33.0,30.09,NNW,329,13.8,13.8,84,0.03,RA,,0.18,WeatherDisplay:10.37,2013-05-03 13:32:00,
2013-05-03 08:37:00,37.5,33.1,30.08,NNW,345,6.9,6.9,84,0.03,CLR,,0.18,WeatherDisplay:10.37,2013-05-03 13:37:00,
2013-05-03 08:42:00,37.7,33.6,30.08,NW,307,9.2,9.2,85,0.03,CLR,,0.18,WeatherDisplay:10.37,2013-05-03 13:42:00,
2013-05-03 08:47:00,37.8,33.4,30.09,North,11,10.4,10.4,84,0.03,RA,,0.19,WeatherDisplay:10.37,2013-05-03 13:47:00,
2013-05-03 08:52:00,37.8,33.4,30.09,NW,313,5.8,5.8,84,0.03,RA,,0.19,WeatherDisplay:10.37,2013-05-03 13:52:00,
2013-05-03 08:57:00,37.9,33.5,30.08,North,350,10.4,10.4,84,0.03,,,0.19,WeatherDisplay:10.37,2013-05-03 13:57:00,
2013-05-03 09:02:00,38.0,33.6,30.08,North,355,4.0,4.0,84,0.02,CLR,,0.19,WeatherDisplay:10.37,2013-05-03 14:02:00,
2013-05-03 09:07:00,38.0,33.6,30.08,NNE,20,11.5,11.5,84,0.02,CLR,,0.19,WeatherDisplay:10.37,2013-05-03 14:07:00,
2013-05-03 09:12:00,38.1,33.7,30.08,NW,311,12.7,12.7,84,0.02,CLR,,0.19,WeatherDisplay:10.37,2013-05-03 14:12:00,
2013-05-03 09:17:00,38.2,33.8,30.08,NNW,335,11.5,11.5,84,0.02,CLR,,0.19,WeatherDisplay:10.37,2013-05-03 14:17:00,
2013-05-03 09:22:00,38.3,33.9,30.08,North,5,9.2,9.2,84,0.02,CLR,,0.19,WeatherDisplay:10.37,2013-05-03 14:22:00,
2013-05-03 09:27:00,38.3,33.6,30.08,NNW,330,11.5,11.5,83,0.01,CLR,,0.19,WeatherDisplay:10.37,2013-05-03 14:27:00,
2013-05-03 09:32:00,38.2,33.5,30.07,NW,319,15.0,15.0,83,0.01,CLR,,0.19,WeatherDisplay:10.37,2013-05-03 14:32:00,
2013-05-03 09:37:00,38.2,33.5,30.07,North,360,8.1,8.1,83,0.01,CLR,,0.19,WeatherDisplay:10.37,2013-05-03 14:37:00,
2013-05-03 09:42:00,38.2,33.5,30.07,NNW,342,5.8,5.8,83,0.01,CLR,,0.19,WeatherDisplay:10.37,2013-05-03 14:42:00,
2013-05-03 09:47:00,38.2,33.5,30.07,NNW,346,11.5,11.5,83,0.00,CLR,,0.19,WeatherDisplay:10.37,2013-05-03 14:47:00,
2013-05-03 09:52:00,38.1,33.4,30.06,NNW,334,7.0,7.0,83,0.00,CLR,,0.19,WeatherDisplay:10.37,2013-05-03 14:52:00,
2013-05-03 09:57:00,38.2,33.5,30.06,North,5,15.0,15.0,83,0.00,CLR,,0.19,WeatherDisplay:10.37,2013-05-03 14:57:00,
2013-05-03 10:02:00,38.3,33.6,30.06,NNW,347,12.0,12.0,83,0.00,CLR,,0.19,WeatherDisplay:10.37,2013-05-03 15:02:00,
2013-05-03 10:07:00,38.4,33.4,30.06,NNW,344,6.9,6.9,82,0.00,CLR,,0.19,WeatherDisplay:10.37,2013-05-03 15:07:00,
2013-05-03 10:12:00,38.5,33.8,30.06,NNW,346,3.5,3.5,83,0.00,CLR,,0.19,WeatherDisplay:10.37,2013-05-03 15:12:00,
2013-05-03 10:17:00,38.5,33.5,30.07,NNW,333,15.0,15.0,82,0.00,CLR,,0.19,WeatherDisplay:10.37,2013-05-03 15:17:00,
2013-05-03 10:22:00,38.4,33.1,30.06,NNW,333,12.7,12.7,81,0.00,CLR,,0.19,WeatherDisplay:10.37,2013-05-03 15:22:00,
2013-05-03 10:27:00,38.5,33.2,30.06,North,355,5.8,5.8,81,0.00,CLR,,0.19,WeatherDisplay:10.37,2013-05-03 15:27:00,
2013-05-03 10:32:00,38.6,33.0,30.05,North,355,6.9,6.9,80,0.00,CLR,,0.19,WeatherDisplay:10.37,2013-05-03 15:32:00,
2013-05-03 10:37:00,38.8,33.5,30.06,NNW,334,12.7,12.7,81,0.00,CLR,,0.19,WeatherDisplay:10.37,2013-05-03 15:37:00,
2013-05-03 10:42:00,38.8,33.2,30.05,North,9,5.8,5.8,80,0.00,CLR,,0.19,WeatherDisplay:10.37,2013-05-03 15:42:00,
2013-05-03 10:47:00,38.8,33.2,30.06,WNW,295,3.5,3.5,80,0.00,CLR,,0.19,WeatherDisplay:10.37,2013-05-03 15:47:00,
2013-05-03 10:52:00,38.8,33.2,30.06,WNW,290,11.0,11.0,80,0.00,CLR,,0.19,WeatherDisplay:10.37,2013-05-03 15:52:00,
2013-05-03 10:57:00,38.9,32.9,30.06,North,355,10.4,10.4,79,0.00,CLR,,0.19,WeatherDisplay:10.37,2013-05-03 15:57:00,
2013-05-03 11:02:00,38.9,32.9,30.06,NW,314,5.8,5.8,79,0.00,CLR,,0.19,WeatherDisplay:10.37,2013-05-03 16:02:00,
2013-05-03 11:07:00,38.9,32.9,30.05,NNW,330,5.8,5.8,79,0.00,CLR,,0.19,WeatherDisplay:10.37,2013-05-03 16:07:00,
2013-05-03 11:12:00,39.0,33.0,30.05,North,350,4.6,4.6,79,0.00,CLR,,0.19,WeatherDisplay:10.37,2013-05-03 16:12:00,
2013-05-03 11:17:00,39.1,33.1,30.05,North,360,9.2,9.2,79,0.00,CLR,,0.19,WeatherDisplay:10.37,2013-05-03 16:17:00,
2013-05-03 11:22:00,39.1,33.1,30.05,NNW,337,5.0,5.0,79,0.00,CLR,,0.19,WeatherDisplay:10.37,2013-05-03 16:22:00,
2013-05-03 11:27:00,39.2,33.5,30.04,NNW,331,10.0,10.0,80,0.00,CLR,,0.19,WeatherDisplay:10.37,2013-05-03 16:27:00,
2013-05-03 11:32:00,39.2,33.5,30.05,NNW,340,15.0,15.0,80,0.00,CLR,,0.19,WeatherDisplay:10.37,2013-05-03 16:32:00,
2013-05-03 11:37:00,39.2,33.2,30.05,North,351,11.5,11.5,79,0.00,CLR,,0.19,WeatherDisplay:10.37,2013-05-03 16:37:00,
2013-05-03 11:42:00,39.2,33.2,30.05,North,355,17.3,17.3,79,0.00,CLR,,0.19,WeatherDisplay:10.37,2013-05-03 16:42:00,
2013-05-03 11:47:00,39.2,33.2,30.05,North,355,6.9,6.9,79,0.00,CLR,,0.19,WeatherDisplay:10.37,2013-05-03 16:47:00,
2013-05-03 11:52:00,39.2,33.2,30.05,NNW,339,6.9,6.9,79,0.00,CLR,,0.19,WeatherDisplay:10.37,2013-05-03 16:52:00,
2013-05-03 11:57:00,39.2,33.5,30.05,North,5,16.1,16.1,80,0.00,CLR,,0.19,WeatherDisplay:10.37,2013-05-03 16:57:00,
2013-05-03 12:02:00,39.2,33.2,30.04,North,360,15.0,15.0,79,0.00,CLR,,0.19,WeatherDisplay:10.37,2013-05-03 17:02:00,
2013-05-03 12:07:00,39.1,33.5,30.03,North,355,12.7,12.7,80,0.00,CLR,,0.19,WeatherDisplay:10.37,2013-05-03 17:07:00,
2013-05-03 12:12:00,39.1,33.5,30.04,NNW,346,11.5,11.5,80,0.00,CLR,,0.19,WeatherDisplay:10.37,2013-05-03 17:12:00,
2013-05-03 12:17:00,39.2,33.5,30.04,NNW,342,5.8,5.8,80,0.00,CLR,,0.19,WeatherDisplay:10.37,2013-05-03 17:17:00,
2013-05-03 12:22:00,39.3,34.0,30.03,NW,316,10.4,10.4,81,0.00,CLR,,0.19,WeatherDisplay:10.37,2013-05-03 17:22:00,
2013-05-03 12:27:00,39.3,34.0,30.03,North,5,12.7,12.7,81,0.00,CLR,,0.19,WeatherDisplay:10.37,2013-05-03 17:27:00,
2013-05-03 12:32:00,39.4,34.1,30.03,NW,317,6.9,6.9,81,0.00,CLR,,0.19,WeatherDisplay:10.37,2013-05-03 17:32:00,
2013-05-03 12:37:00,39.5,34.5,30.03,NW,322,6.9,6.9,82,0.00,CLR,,0.19,WeatherDisplay:10.37,2013-05-03 17:37:00,
2013-05-03 12:42:00,39.3,34.3,30.03,WNW,303,11.5,11.5,82,0.00,CLR,,0.19,WeatherDisplay:10.37,2013-05-03 17:42:00,
2013-05-03 12:47:00,39.3,34.3,30.02,North,360,11.5,11.5,82,0.00,CLR,,0.19,WeatherDisplay:10.37,2013-05-03 17:47:00,
2013-05-03 12:52:00,39.3,34.6,30.02,NW,309,5.0,5.0,83,0.00,CLR,,0.19,WeatherDisplay:10.37,2013-05-03 17:52:00,
2013-05-03 12:57:00,39.3,34.9,30.03,North,5,11.5,11.5,84,0.00,CLR,,0.19,WeatherDisplay:10.37,2013-05-03 17:57:00,
2013-05-03 13:02:00,39.0,34.6,30.02,NNW,331,4.6,4.6,84,0.00,CLR,,0.19,WeatherDisplay:10.37,2013-05-03 18:02:00,
2013-05-03 13:07:00,38.9,34.8,30.01,NNW,336,11.5,11.5,85,0.00,CLR,,0.19,WeatherDisplay:10.37,2013-05-03 18:07:00,
2013-05-03 13:12:00,38.8,34.7,30.01,North,360,12.7,12.7,85,0.00,CLR,,0.19,WeatherDisplay:10.37,2013-05-03 18:12:00,
2013-05-03 13:17:00,38.7,34.6,30.01,NW,322,10.0,10.0,85,0.00,CLR,,0.19,WeatherDisplay:10.37,2013-05-03 18:17:00,
2013-05-03 13:22:00,38.4,34.6,30.01,NNW,346,19.6,19.6,86,0.01,RA,,0.20,WeatherDisplay:10.37,2013-05-03 18:22:00,
2013-05-03 13:28:00,38.3,34.8,30.01,WNW,298,15.0,15.0,87,0.01,RA,,0.20,WeatherDisplay:10.37,2013-05-03 18:28:00,
2013-05-03 13:33:00,38.2,34.7,30.00,North,5,10.0,10.0,87,0.01,,,0.20,WeatherDisplay:10.37,2013-05-03 18:33:00,
2013-05-03 13:38:00,38.2,35.0,30.00,WNW,293,3.5,3.5,88,0.01,CLR,,0.20,WeatherDisplay:10.37,2013-05-03 18:38:00,
2013-05-03 13:43:00,38.2,35.0,30.00,WNW,292,11.5,11.5,88,0.01,CLR,,0.20,WeatherDisplay:10.37,2013-05-03 18:43:00,
2013-05-03 13:48:00,38.3,35.1,30.00,North,349,11.5,11.5,88,0.01,CLR,,0.20,WeatherDisplay:10.37,2013-05-03 18:48:00,
2013-05-03 13:53:00,38.3,35.3,30.00,NNW,348,4.6,4.6,89,0.01,CLR,,0.20,WeatherDisplay:10.37,2013-05-03 18:53:00,
2013-05-03 13:58:00,38.3,35.3,30.00,NNW,343,10.4,10.4,89,0.01,CLR,,0.20,WeatherDisplay:10.37,2013-05-03 18:58:00,
2013-05-03 14:03:00,38.3,35.3,30.00,North,355,10.0,10.0,89,0.01,CLR,,0.20,WeatherDisplay:10.37,2013-05-03 19:03:00,
2013-05-03 14:08:00,38.3,35.1,30.00,NNW,339,6.0,6.0,88,0.01,CLR,,0.20,WeatherDisplay:10.37,2013-05-03 19:08:00,
2013-05-03 14:13:00,38.3,35.3,29.99,WNW,297,15.0,15.0,89,0.01,CLR,,0.20,WeatherDisplay:10.37,2013-05-03 19:13:00,
2013-05-03 14:18:00,38.4,35.4,29.99,NW,304,11.5,11.5,89,0.01,CLR,,0.20,WeatherDisplay:10.37,2013-05-03 19:18:00,
2013-05-03 14:23:00,38.5,35.5,29.99,North,350,10.4,10.4,89,0.00,CLR,,0.20,WeatherDisplay:10.37,2013-05-03 19:23:00,
2013-05-03 14:28:00,38.4,34.9,29.99,North,9,17.3,17.3,87,0.00,CLR,,0.20,WeatherDisplay:10.37,2013-05-03 19:28:00,
2013-05-03 14:33:00,38.7,35.5,29.99,West,268,13.0,13.0,88,0.00,CLR,,0.20,WeatherDisplay:10.37,2013-05-03 19:33:00,
2013-05-03 14:38:00,38.8,35.3,29.99,North,355,3.5,3.5,87,0.00,CLR,,0.20,WeatherDisplay:10.37,2013-05-03 19:38:00,
2013-05-03 14:43:00,38.8,36.7,29.99,North,360,13.8,13.8,92,0.00,CLR,,0.20,WeatherDisplay:10.37,2013-05-03 19:43:00,
2013-05-03 14:48:00,38.8,35.3,29.99,NW,320,9.2,9.2,87,0.00,CLR,,0.20,WeatherDisplay:10.37,2013-05-03 19:48:00,
2013-05-03 14:53:00,38.8,35.3,29.99,North,349,6.0,6.0,87,0.00,CLR,,0.20,WeatherDisplay:10.37,2013-05-03 19:53:00,
2013-05-03 14:58:00,38.9,35.4,29.98,NNW,339,9.2,9.2,87,0.00,CLR,,0.20,WeatherDisplay:10.37,2013-05-03 19:58:00,
2013-05-03 15:03:00,38.8,35.3,29.99,NNW,338,15.0,15.0,87,0.00,CLR,,0.20,WeatherDisplay:10.37,2013-05-03 20:03:00,
2013-05-03 15:08:00,38.7,35.2,29.99,NNW,346,11.5,11.5,87,0.00,CLR,,0.20,WeatherDisplay:10.37,2013-05-03 20:08:00,
2013-05-03 15:13:00,38.8,35.3,29.99,North,360,2.3,2.3,87,0.00,CLR,,0.20,WeatherDisplay:10.37,2013-05-03 20:13:00,
2013-05-03 15:18:00,38.6,35.1,29.99,NW,318,6.9,6.9,87,0.00,CLR,,0.20,WeatherDisplay:10.37,2013-05-03 20:18:00,
2013-05-03 15:23:00,38.3,34.8,29.99,WNW,295,10.4,10.4,87,0.00,CLR,,0.20,WeatherDisplay:10.37,2013-05-03 20:23:00,
2013-05-03 15:28:00,38.2,35.0,29.98,WNW,299,5.8,5.8,88,0.01,RA,,0.21,WeatherDisplay:10.37,2013-05-03 20:28:00,
2013-05-03 15:33:00,38.1,34.9,29.98,NW,326,7.0,7.0,88,0.01,RA,,0.21,WeatherDisplay:10.37,2013-05-03 20:33:00,
2013-05-03 15:38:00,38.0,35.0,29.98,North,360,12.7,12.7,89,0.01,,,0.21,WeatherDisplay:10.37,2013-05-03 20:38:00,
2013-05-03 15:43:00,37.9,34.9,29.98,North,355,10.4,10.4,89,0.01,CLR,,0.21,WeatherDisplay:10.37,2013-05-03 20:43:00,
2013-05-03 15:48:00,37.8,34.8,29.98,NNW,334,10.4,10.4,89,0.01,CLR,,0.21,WeatherDisplay:10.37,2013-05-03 20:48:00,
2013-05-03 15:53:00,37.8,34.8,29.97,North,350,11.5,11.5,89,0.01,CLR,,0.21,WeatherDisplay:10.37,2013-05-03 20:53:00,
2013-05-03 15:58:00,37.7,34.8,29.97,NW,314,11.5,11.5,89,0.01,CLR,,0.21,WeatherDisplay:10.37,2013-05-03 20:58:00,
2013-05-03 16:03:00,37.8,34.8,29.97,NNW,331,10.4,10.4,89,0.01,CLR,,0.21,WeatherDisplay:10.37,2013-05-03 21:03:00,
2013-05-03 16:08:00,37.9,34.9,29.97,NNW,348,7.0,7.0,89,0.01,CLR,,0.21,WeatherDisplay:10.37,2013-05-03 21:08:00,
2013-05-03 16:13:00,38.0,35.0,29.97,North,355,12.7,12.7,89,0.01,CLR,,0.21,WeatherDisplay:10.37,2013-05-03 21:13:00,
2013-05-03 16:18:00,38.0,35.0,29.96,NNW,341,5.8,5.8,89,0.01,CLR,,0.21,WeatherDisplay:10.37,2013-05-03 21:18:00,
2013-05-03 16:23:00,38.2,35.5,29.96,NNW,345,12.7,12.7,90,0.01,CLR,,0.21,WeatherDisplay:10.37,2013-05-03 21:23:00,
2013-05-03 16:28:00,38.2,35.2,29.96,NNW,345,4.0,4.0,89,0.00,CLR,,0.21,WeatherDisplay:10.37,2013-05-03 21:28:00,
2013-05-03 16:33:00,38.2,35.2,29.97,WNW,284,13.8,13.8,89,0.00,CLR,,0.21,WeatherDisplay:10.37,2013-05-03 21:33:00,
2013-05-03 16:38:00,38.2,35.0,29.97,NNW,342,10.0,10.0,88,0.00,CLR,,0.21,WeatherDisplay:10.37,2013-05-03 21:38:00,
2013-05-03 16:43:00,38.3,35.1,29.96,NNW,331,6.9,6.9,88,0.00,CLR,,0.21,WeatherDisplay:10.37,2013-05-03 21:43:00,
2013-05-03 16:48:00,38.4,35.2,29.96,NNW,338,16.1,16.1,88,0.00,CLR,,0.21,WeatherDisplay:10.37,2013-05-03 21:48:00,
2013-05-03 16:53:00,38.5,35.3,29.95,North,355,4.0,4.0,88,0.00,CLR,,0.21,WeatherDisplay:10.37,2013-05-03 21:53:00,
2013-05-03 16:58:00,38.6,35.4,29.95,North,355,6.0,6.0,88,0.00,CLR,,0.21,WeatherDisplay:10.37,2013-05-03 21:58:00,
2013-05-03 17:03:00,38.6,35.1,29.95,NNE,17,11.5,11.5,87,0.00,CLR,,0.21,WeatherDisplay:10.37,2013-05-03 22:03:00,
2013-05-03 17:08:00,38.6,35.4,29.95,NNW,328,11.5,11.5,88,0.00,CLR,,0.21,WeatherDisplay:10.37,2013-05-03 22:08:00,
2013-05-03 17:13:00,38.5,35.0,29.95,NW,318,15.0,15.0,87,0.01,RA,,0.22,WeatherDisplay:10.37,2013-05-03 22:13:00,
2013-05-03 17:18:00,38.5,35.0,29.95,North,355,6.9,6.9,87,0.01,RA,,0.22,WeatherDisplay:10.37,2013-05-03 22:18:00,
2013-05-03 17:23:00,38.6,35.1,29.96,NNW,342,14.0,14.0,87,0.01,CLR,,0.22,WeatherDisplay:10.37,2013-05-03 22:23:00,
2013-05-03 17:28:00,38.5,35.0,29.95,North,355,5.0,5.0,87,0.01,CLR,,0.22,WeatherDisplay:10.37,2013-05-03 22:28:00,
2013-05-03 17:33:00,38.4,34.9,29.95,North,355,15.0,15.0,87,0.01,CLR,,0.22,WeatherDisplay:10.37,2013-05-03 22:33:00,
2013-05-03 17:38:00,38.4,34.9,29.95,NNW,342,3.5,3.5,87,0.01,CLR,,0.22,WeatherDisplay:10.37,2013-05-03 22:38:00,
2013-05-03 17:43:00,38.3,35.1,29.95,NNW,348,12.7,12.7,88,0.01,CLR,,0.22,WeatherDisplay:10.37,2013-05-03 22:43:00,
2013-05-03 17:48:00,38.2,35.0,29.95,NNW,348,10.4,10.4,88,0.01,CLR,,0.22,WeatherDisplay:10.37,2013-05-03 22:48:00,
2013-05-03 17:53:00,38.1,34.9,29.95,NNW,340,11.5,11.5,88,0.01,CLR,,0.22,WeatherDisplay:10.37,2013-05-03 22:53:00,
2013-05-03 17:58:00,38.2,35.2,29.94,NNW,337,4.6,4.6,89,0.01,CLR,,0.22,WeatherDisplay:10.37,2013-05-03 22:58:00,
2013-05-03 18:03:00,38.0,35.0,29.95,North,5,12.7,12.7,89,0.01,CLR,,0.22,WeatherDisplay:10.37,2013-05-03 23:03:00,
2013-05-03 18:08:00,37.9,34.9,29.95,NW,323,5.8,5.8,89,0.01,CLR,,0.22,WeatherDisplay:10.37,2013-05-03 23:08:00,
2013-05-03 18:13:00,37.8,35.1,29.95,NNW,346,7.0,7.0,90,0.00,CLR,,0.22,WeatherDisplay:10.37,2013-05-03 23:13:00,
2013-05-03 18:18:00,37.8,35.1,29.95,NNW,342,9.2,9.2,90,0.00,CLR,,0.22,WeatherDisplay:10.37,2013-05-03 23:18:00,
2013-05-03 18:23:00,37.8,35.1,29.95,NNW,348,5.8,5.8,90,0.01,RA,,0.23,WeatherDisplay:10.37,2013-05-03 23:23:00,
2013-05-03 18:28:00,37.8,35.1,29.95,North,349,6.9,6.9,90,0.01,RA,,0.23,WeatherDisplay:10.37,2013-05-03 23:28:00,
2013-05-03 18:33:00,37.7,35.3,29.95,North,5,9.2,9.2,91,0.01,CLR,,0.23,WeatherDisplay:10.37,2013-05-03 23:33:00,
2013-05-03 18:38:00,37.7,35.0,29.95,North,9,6.9,6.9,90,0.01,CLR,,0.23,WeatherDisplay:10.37,2013-05-03 23:38:00,
2013-05-03 18:43:00,37.7,35.3,29.94,North,5,3.5,3.5,91,0.01,CLR,,0.23,WeatherDisplay:10.37,2013-05-03 23:43:00,
2013-05-03 18:48:00,37.7,35.3,29.94,North,355,11.5,11.5,91,0.01,CLR,,0.23,WeatherDisplay:10.37,2013-05-03 23:48:00,
2013-05-03 18:53:00,37.5,34.8,29.94,North,355,10.4,10.4,90,0.01,CLR,,0.23,WeatherDisplay:10.37,2013-05-03 23:53:00,
2013-05-03 18:58:00,37.4,34.7,29.94,North,355,6.0,6.0,90,0.01,CLR,,0.23,WeatherDisplay:10.37,2013-05-03 23:58:00,
2013-05-03 19:03:00,37.3,34.6,29.94,North,355,11.5,11.5,90,0.01,CLR,,0.23,WeatherDisplay:10.37,2013-05-04 00:03:00,
2013-05-03 19:08:00,37.3,34.9,29.94,North,355,11.0,11.0,91,0.01,CLR,,0.23,WeatherDisplay:10.37,2013-05-04 00:08:00,
2013-05-03 19:13:00,37.3,34.9,29.93,North,360,8.1,8.1,91,0.01,CLR,,0.23,WeatherDisplay:10.37,2013-05-04 00:13:00,
2013-05-03 19:18:00,37.3,34.9,29.93,North,360,5.0,5.0,91,0.01,CLR,,0.23,WeatherDisplay:10.37,2013-05-04 00:18:00,
2013-05-03 19:23:00,37.3,34.9,29.93,North,355,4.6,4.6,91,0.00,CLR,,0.23,WeatherDisplay:10.37,2013-05-04 00:23:00,
2013-05-03 19:28:00,37.3,35.2,29.93,NNW,344,8.1,8.1,92,0.00,CLR,,0.24,WeatherDisplay:10.37,2013-05-04 00:28:00,
2013-05-03 19:33:00,37.2,35.1,29.93,North,355,7.0,7.0,92,0.01,RA,,0.24,WeatherDisplay:10.37,2013-05-04 00:33:00,
2013-05-03 19:38:00,37.1,35.0,29.92,North,9,8.1,8.1,92,0.01,RA,,0.24,WeatherDisplay:10.37,2013-05-04 00:38:00,
2013-05-03 19:43:00,37.0,34.9,29.92,North,360,11.5,11.5,92,0.01,CLR,,0.24,WeatherDisplay:10.37,2013-05-04 00:43:00,
2013-05-03 19:48:00,37.0,34.9,29.92,NW,318,11.5,11.5,92,0.01,CLR,,0.24,WeatherDisplay:10.37,2013-05-04 00:48:00,
2013-05-03 19:53:00,37.0,34.9,29.92,NW,307,5.8,5.8,92,0.01,CLR,,0.24,WeatherDisplay:10.37,2013-05-04 00:53:00,
2013-05-03 19:58:00,36.9,34.8,29.92,North,355,9.2,9.2,92,0.01,CLR,,0.24,WeatherDisplay:10.37,2013-05-04 00:58:00,
2013-05-03 20:03:00,36.9,35.1,29.92,NNW,337,4.6,4.6,93,0.01,CLR,,0.24,WeatherDisplay:10.37,2013-05-04 01:03:00,
2013-05-03 20:08:00,36.9,35.1,29.92,NNW,328,6.0,6.0,93,0.01,CLR,,0.24,WeatherDisplay:10.37,2013-05-04 01:08:00,
2013-05-03 20:13:00,36.9,35.1,29.92,NNW,337,5.8,5.8,93,0.01,CLR,,0.24,WeatherDisplay:10.37,2013-05-04 01:13:00,
2013-05-03 20:18:00,36.9,35.1,29.92,North,360,11.5,11.5,93,0.02,RA,,0.25,WeatherDisplay:10.37,2013-05-04 01:18:00,
2013-05-03 20:23:00,36.8,35.0,29.92,North,355,11.5,11.5,93,0.02,RA,,0.25,WeatherDisplay:10.37,2013-05-04 01:23:00,
2013-05-03 20:28:00,36.7,34.9,29.92,NNW,346,6.0,6.0,93,0.01,,,0.25,WeatherDisplay:10.37,2013-05-04 01:28:00,
2013-05-03 20:33:00,36.7,34.9,29.92,NNW,344,2.3,2.3,93,0.01,CLR,,0.25,WeatherDisplay:10.37,2013-05-04 01:33:00,
2013-05-03 20:38:00,36.7,34.9,29.91,NNW,344,7.0,7.0,93,0.01,CLR,,0.25,WeatherDisplay:10.37,2013-05-04 01:38:00,
2013-05-03 20:43:00,36.6,34.8,29.91,North,355,3.5,3.5,93,0.02,RA,,0.26,WeatherDisplay:10.37,2013-05-04 01:43:00,
2013-05-03 20:48:00,36.6,34.8,29.91,North,355,2.3,2.3,93,0.02,RA,,0.26,WeatherDisplay:10.37,2013-05-04 01:48:00,
2013-05-03 20:53:00,36.6,35.0,29.91,North,355,3.5,3.5,94,0.02,CLR,,0.26,WeatherDisplay:10.37,2013-05-04 01:53:00,
2013-05-03 20:58:00,36.6,35.0,29.91,North,350,3.5,3.5,94,0.03,RA,,0.27,WeatherDisplay:10.37,2013-05-04 01:58:00,
2013-05-03 21:03:00,36.6,35.0,29.91,North,349,5.0,5.0,94,0.03,RA,,0.27,WeatherDisplay:10.37,2013-05-04 02:03:00,
2013-05-03 21:08:00,36.5,34.9,29.90,North,350,3.5,3.5,94,0.03,,,0.27,WeatherDisplay:10.37,2013-05-04 02:08:00,
2013-05-03 21:13:00,36.5,34.9,29.90,North,349,3.5,3.5,94,0.03,CLR,,0.27,WeatherDisplay:10.37,2013-05-04 02:13:00,
2013-05-03 21:18:00,36.6,35.0,29.90,North,349,3.5,3.5,94,0.02,CLR,,0.27,WeatherDisplay:10.37,2013-05-04 02:18:00,
2013-05-03 21:23:00,36.6,35.0,29.90,North,349,2.3,2.3,94,0.03,RA,,0.28,WeatherDisplay:10.37,2013-05-04 02:23:00,
2013-05-03 21:28:00,36.6,35.0,29.90,NNW,347,4.0,4.0,94,0.03,RA,,0.28,WeatherDisplay:10.37,2013-05-04 02:28:00,
2013-05-03 21:33:00,36.6,35.0,29.90,NNW,346,3.5,3.5,94,0.03,CLR,,0.28,WeatherDisplay:10.37,2013-05-04 02:33:00,
2013-05-03 21:38:00,36.6,35.0,29.90,NNW,346,3.5,3.5,94,0.03,CLR,,0.28,WeatherDisplay:10.37,2013-05-04 02:38:00,
2013-05-03 21:43:00,36.6,35.0,29.90,NNW,346,5.8,5.8,94,0.03,RA,,0.29,WeatherDisplay:10.37,2013-05-04 02:43:00,
2013-05-03 21:48:00,36.7,35.1,29.89,NNW,345,4.6,4.6,94,0.03,RA,,0.29,WeatherDisplay:10.37,2013-05-04 02:48:00,
2013-05-03 21:53:00,36.6,35.0,29.89,North,350,6.9,6.9,94,0.03,,,0.29,WeatherDisplay:10.37,2013-05-04 02:53:00,
2013-05-03 21:58:00,36.7,35.4,29.89,NNW,341,10.4,10.4,95,0.02,CLR,,0.29,WeatherDisplay:10.37,2013-05-04 02:58:00,
2013-05-03 22:03:00,36.6,35.3,29.89,NNW,343,4.6,4.6,95,0.03,RA,,0.30,WeatherDisplay:10.37,2013-05-04 03:03:00,
2013-05-03 22:08:00,36.6,35.3,29.89,NNW,341,3.0,3.0,95,0.03,RA,,0.30,WeatherDisplay:10.37,2013-05-04 03:08:00,
2013-05-03 22:13:00,36.5,35.2,29.88,North,350,6.9,6.9,95,0.04,RA,,0.31,WeatherDisplay:10.37,2013-05-04 03:13:00,
2013-05-03 22:18:00,36.5,34.9,29.88,NW,314,10.4,10.4,94,0.04,RA,,0.31,WeatherDisplay:10.37,2013-05-04 03:18:00,
2013-05-03 22:23:00,36.5,34.9,29.88,NNE,15,4.6,4.6,94,0.03,,,0.31,WeatherDisplay:10.37,2013-05-04 03:23:00,
2013-05-03 22:28:00,36.4,34.8,29.88,North,360,11.5,11.5,94,0.03,CLR,,0.31,WeatherDisplay:10.37,2013-05-04 03:28:00,
2013-05-03 22:33:00,36.4,34.8,29.88,North,5,3.5,3.5,94,0.04,RA,,0.32,WeatherDisplay:10.37,2013-05-04 03:33:00,
2013-05-03 22:38:00,36.4,34.8,29.87,North,355,10.4,10.4,94,0.04,RA,,0.32,WeatherDisplay:10.37,2013-05-04 03:38:00,
2013-05-03 22:43:00,36.4,34.8,29.87,North,350,8.1,8.1,94,0.03,CLR,,0.32,WeatherDisplay:10.37,2013-05-04 03:43:00,
2013-05-03 22:48:00,36.3,34.7,29.87,North,360,18.4,18.4,94,0.03,CLR,,0.32,WeatherDisplay:10.37,2013-05-04 03:48:00,
2013-05-03 22:53:00,36.2,34.6,29.87,North,355,7.0,7.0,94,0.03,CLR,,0.32,WeatherDisplay:10.37,2013-05-04 03:53:00,
2013-05-03 22:58:00,36.2,34.9,29.87,North,355,5.8,5.8,95,0.03,CLR,,0.32,WeatherDisplay:10.37,2013-05-04 03:58:00,
2013-05-03 23:01:00,36.1,34.8,29.87,North,355,10.4,10.4,95,0.02,CLR,,0.32,WeatherDisplay:10.37,2013-05-04 04:01:00,
2013-05-03 23:02:00,36.1,34.8,29.87,NNE,13,13.0,13.0,95,0.02,CLR,,0.32,WeatherDisplay:10.37,2013-05-04 04:02:00,
2013-05-03 23:07:00,36.0,34.4,29.86,North,360,9.2,9.2,94,0.03,RA,,0.33,WeatherDisplay:10.37,2013-05-04 04:07:00,
2013-05-03 23:12:00,36.1,34.8,29.86,North,360,12.0,12.0,95,0.03,RA,,0.33,WeatherDisplay:10.37,2013-05-04 04:12:00,
2013-05-03 23:17:00,36.0,34.7,29.85,North,10,5.8,5.8,95,0.02,CLR,,0.33,WeatherDisplay:10.37,2013-05-04 04:17:00,
2013-05-03 23:22:00,36.0,34.7,29.85,North,360,5.8,5.8,95,0.02,CLR,,0.33,WeatherDisplay:10.37,2013-05-04 04:22:00,
2013-05-03 23:27:00,35.9,34.6,29.85,North,360,11.5,11.5,95,0.02,CLR,,0.33,WeatherDisplay:10.37,2013-05-04 04:27:00,
2013-05-03 23:32:00,35.9,34.3,29.85,North,355,13.8,13.8,94,0.01,CLR,,0.33,WeatherDisplay:10.37,2013-05-04 04:32:00,
2013-05-03 23:37:00,35.8,34.2,29.85,North,360,7.0,7.0,94,0.01,CLR,,0.33,WeatherDisplay:10.37,2013-05-04 04:37:00,
2013-05-03 23:42:00,35.7,34.1,29.84,North,351,4.6,4.6,94,0.01,CLR,,0.33,WeatherDisplay:10.37,2013-05-04 04:42:00,
2013-05-03 23:47:00,35.6,34.0,29.84,North,355,9.2,9.2,94,0.02,RA,,0.34,WeatherDisplay:10.37,2013-05-04 04:47:00,
2013-05-03 23:52:00,35.6,34.3,29.84,North,355,9.0,9.0,95,0.02,RA,,0.34,WeatherDisplay:10.37,2013-05-04 04:52:00,
2013-05-03 23:57:00,35.6,34.3,29.84,NNW,345,11.5,11.5,95,0.02,,,0.34,WeatherDisplay:10.37,2013-05-04 04:57:00,